Home   Weather   East Hants   Past weeks

Flag for Canada Past Weather in East Hants, Nova Scotia, Canada — Yesterday and Last 2 Weeks

Now
18 °F

Passing clouds.


Feels Like: 9 °F
Forecast: 13 / 22 °F
Wind: 6 mph from North

Location: Halifax International Airport

Current Time: Jan 19, 2018 at 2:33:06 am

Latest Report: Jan 19, 2018 at 1:00 am


Visibility: 15 mi

Pressure: 29.76 "Hg

Humidity: 100%

Dew Point: 18 °F

Location of East HantsLocation

Past Weather in East Hants — Graph

°F

East Hants Temperature Yesterday

Maximum temperature yesterday: 32 °F (at 3:56 pm)
Minimum temperature yesterday: 21 °F (at 11:00 pm)
Average temperature yesterday: 29 °F

High & Low Weather Summary for the Past Weeks

 TemperatureHumidityPressure
High59 °F (Jan 13, 6:00 am)100% (Jan 4, 3:00 am)30.78 "Hg (Jan 4, 3:00 am)
Low1 °F (Jan 7, 8:00 am)43% (Jan 6, 2:00 pm)28.54 "Hg (Jan 5, 1:34 am)
Average29 °F90%29.98 "Hg
* Reported Jan 4 12:00 am — Jan 19 12:00 am, East Hants. Weather by CustomWeather, © 2018

Note: Actual official high and low records may vary slightly from our data, if they occured in-between our weather recording intervals... More about our weather records

Advertising

East Hants Weather History for the Previous 24 Hours

Scroll right to see more
 ConditionsComfort  
Time TempWeatherWind HumidityBarometerVisibility
12:00 am
Fri, Jan 19
21 °FPassing clouds.14 mph93%29.74 "Hg15 mi
11:00 pm
Thu, Jan 18
21 °FPassing clouds.14 mph93%29.77 "Hg15 mi
10:00 pm23 °FPassing clouds.13 mph100%29.78 "Hg15 mi
9:00 pm25 °FPassing clouds.9 mph93%29.77 "Hg15 mi
8:00 pm27 °FPassing clouds.12 mph86%29.77 "Hg15 mi
7:00 pm28 °FPassing clouds.7 mph93%29.75 "Hg15 mi
6:00 pm28 °FOvercast.14 mph93%29.73 "Hg14 mi
5:00 pm32 °FPartly sunny.10 mph93%29.74 "Hg15 mi
4:31 pm32 °FPartly sunny.6 mph93%29.74 "Hg15 mi
4:00 pm32 °FSnow flurries. Overcast.7 mph93%29.75 "Hg12 mi
3:56 pm32 °FSnow flurries. Overcast.6 mph93%29.76 "Hg12 mi
3:00 pm30 °FMore clouds than sun.6 mph100%29.75 "Hg15 mi
2:00 pm30 °FLow clouds.9 mph100%29.78 "Hg15 mi
1:00 pm30 °FLow clouds.8 mph100%29.79 "Hg15 mi
12:00 pm30 °FPartly sunny.6 mph93%29.81 "Hg15 mi
11:00 am30 °FPartly sunny.9 mph93%29.84 "Hg15 mi
10:00 am28 °FBroken clouds.7 mph100%29.84 "Hg15 mi
9:10 am27 °FBroken clouds.8 mph100%29.85 "Hg15 mi
9:00 am27 °FPartly sunny.9 mph100%29.85 "Hg15 mi
8:53 am27 °FBroken clouds.10 mph100%29.85 "Hg15 mi
8:37 am27 °FPartly sunny.6 mph100%29.85 "Hg15 mi
8:00 am27 °FPartly sunny.6 mph100%29.84 "Hg15 mi
7:00 am27 °FPartly cloudy.12 mph100%29.81 "Hg10 mi
6:44 am28 °FMostly cloudy.13 mph100%29.81 "Hg10 mi
6:00 am28 °FLight freezing rain. Ice fog.15 mph100%29.80 "Hg6 mi
5:34 am28 °FLight freezing rain. Ice fog.18 mph100%29.81 "Hg3 mi
5:00 am30 °FLight freezing rain. Ice fog.13 mph100%29.81 "Hg1 mi
4:38 am30 °FLight freezing rain. Ice fog.9 mph100%29.81 "Hg1 mi
4:20 am28 °FLight freezing rain. Ice fog.13 mph100%29.81 "Hg2 mi
3:00 am28 °FLight freezing rain. Ice fog.12 mph100%29.80 "Hg1 mi
2:27 am30 °FLight freezing rain. Ice fog.13 mph100%29.80 "Hg1 mi
2:13 am30 °FLight freezing rain. Ice fog.13 mph100%29.81 "Hg2 mi
2:00 am28 °FLight freezing rain. Ice fog.10 mph100%29.81 "Hg3 mi
Weather by CustomWeather, © 2018

See weather overview